owner,sensor,date,latitude,longitude,vertical_datum,sea_water_practical_salinity,qcFlag 
DISL,ioos:station:DISL:MHPA:1,2008-09-12T13:00:00Z,30.6671,-87.9365,2.2,9.5,11111222 
DISL,ioos:station:DISL:MHPA:1,2008-09-12T13:30:00Z,30.6671,-87.9365,2.2,10.0,11111222 
DISL,ioos:station:DISL:MHPA:1,2008-09-12T14:00:00Z,30.6671,-87.9365,2.3,10.1,11111222 
DISL,ioos:station:DISL:MHPA:1,2008-09-12T14:30:00Z,30.6671,-87.9365,2.3,9.1,11111222 
DISL,ioos:station:DISL:MHPA:1,2008-09-12T15:00:00Z,30.6671,-87.9365,2.3,9.6,11111222 
DISL,ioos:station:DISL:MHPA:1,2008-09-12T15:30:00Z,30.6671,-87.9365,2.3,9.8,11111222 
DISL,ioos:station:DISL:MHPA:1,2008-09-12T16:00:00Z,30.6671,-87.9365,2.3,9.9,11111222 
DISL,ioos:station:DISL:MHPA:1,2008-09-12T16:30:00Z,30.6671,-87.9365,2.3,9.9,11111222 
DISL,ioos:station:DISL:MHPA:1,2008-09-12T17:00:00Z,30.6671,-87.9365,2.3,9.8,11111222 
DISL,ioos:station:DISL:MHPA:1,2008-09-12T17:30:00Z,30.6671,-87.9365,2.3,9.9,11111222 
DISL,ioos:station:DISL:MHPA:1,2008-09-12T18:00:00Z,30.6671,-87.9365,2.3,10.0,11111222 
DISL,ioos:station:DISL:MHPA:1,2008-09-12T18:30:00Z,30.6671,-87.9365,2.2,9.9,11111222 
DISL,ioos:station:DISL:MHPA:1,2008-09-12T19:00:00Z,30.6671,-87.9365,2.2,9.8,11111222 
DISL,ioos:station:DISL:MHPA:1,2008-09-12T19:30:00Z,30.6671,-87.9365,2.1,9.9,11111222 
DISL,ioos:station:DISL:MHPA:1,2008-09-12T20:00:00Z,30.6671,-87.9365,2.1,9.9,11111222 
DISL,ioos:station:DISL:MHPA:1,2008-09-12T20:30:00Z,30.6671,-87.9365,2.0,9.6,11111222 
DISL,ioos:station:DISL:MHPA:1,2008-09-12T21:00:00Z,30.6671,-87.9365,2.0,9.5,11111222 
DISL,ioos:station:DISL:MHPA:1,2008-09-12T21:30:00Z,30.6671,-87.9365,1.9,9.8,11111222 
DISL,ioos:station:DISL:MHPA:1,2008-09-12T22:00:00Z,30.6671,-87.9365,1.9,9.7,11111222 
DISL,ioos:station:DISL:MHPA:1,2008-09-12T22:30:00Z,30.6671,-87.9365,1.9,9.9,11111222 
DISL,ioos:station:DISL:MHPA:1,2008-09-12T23:00:00Z,30.6671,-87.9365,1.8,9.8,11111222 
DISL,ioos:station:DISL:MHPA:1,2008-09-12T23:30:00Z,30.6671,-87.9365,1.8,9.8,11111222 
DISL,ioos:station:DISL:MHPA:1,2008-09-13T00:00:00Z,30.6671,-87.9365,1.8,9.7,11111222 
DISL,ioos:station:DISL:MHPA:1,2008-09-13T00:30:00Z,30.6671,-87.9365,1.8,9.8,11111222 
DISL,ioos:station:DISL:MHPA:1,2008-09-13T01:00:00Z,30.6671,-87.9365,1.7,9.6,11111222 
DISL,ioos:station:DISL:MHPA:1,2008-09-13T01:30:00Z,30.6671,-87.9365,1.7,9.8,11111222 
DISL,ioos:station:DISL:MHPA:1,2008-09-13T02:00:00Z,30.6671,-87.9365,1.7,9.8,11111222 
DISL,ioos:station:DISL:MHPA:1,2008-09-13T02:30:00Z,30.6671,-87.9365,1.7,9.7,11111222 
DISL,ioos:station:DISL:MHPA:1,2008-09-13T03:00:00Z,30.6671,-87.9365,1.7,9.7,11111222 
DISL,ioos:station:DISL:MHPA:1,2008-09-13T03:30:00Z,30.6671,-87.9365,1.7,9.6,11111222 
DISL,ioos:station:DISL:MHPA:1,2008-09-13T04:00:00Z,30.6671,-87.9365,1.7,9.4,11111222 
DISL,ioos:station:DISL:MHPA:1,2008-09-13T04:30:00Z,30.6671,-87.9365,1.7,9.5,11111222 
DISL,ioos:station:DISL:MHPA:1,2008-09-13T05:00:00Z,30.6671,-87.9365,1.7,9.6,11111222 
DISL,ioos:station:DISL:MHPA:1,2008-09-13T05:30:00Z,30.6671,-87.9365,1.7,9.6,11111222 
DISL,ioos:station:DISL:MHPA:1,2008-09-13T06:00:00Z,30.6671,-87.9365,1.8,9.5,11111222 
DISL,ioos:station:DISL:MHPA:1,2008-09-13T06:30:00Z,30.6671,-87.9365,1.8,9.4,11111222 
DISL,ioos:station:DISL:MHPA:1,2008-09-13T07:00:00Z,30.6671,-87.9365,1.8,9.4,11111222 
DISL,ioos:station:DISL:MHPA:1,2008-09-13T07:30:00Z,30.6671,-87.9365,1.8,9.3,11111222 
DISL,ioos:station:DISL:MHPA:1,2008-09-13T08:00:00Z,30.6671,-87.9365,1.8,9.3,11111222 
DISL,ioos:station:DISL:MHPA:1,2008-09-13T08:30:00Z,30.6671,-87.9365,1.8,9.3,11111222 
DISL,ioos:station:DISL:MHPA:1,2008-09-13T09:00:00Z,30.6671,-87.9365,1.8,9.2,11111222 
DISL,ioos:station:DISL:MHPA:1,2008-09-13T09:30:00Z,30.6671,-87.9365,1.8,9.2,11111222 
DISL,ioos:station:DISL:MHPA:1,2008-09-13T10:00:00Z,30.6671,-87.9365,1.8,9.2,11111222 
DISL,ioos:station:DISL:MHPA:1,2008-09-13T10:30:00Z,30.6671,-87.9365,1.8,9.3,11111222 
DISL,ioos:station:DISL:MHPA:1,2008-09-13T11:00:00Z,30.6671,-87.9365,1.8,9.3,11111222 
DISL,ioos:station:DISL:MHPA:1,2008-09-13T11:30:00Z,30.6671,-87.9365,1.8,9.3,11111222 
DISL,ioos:station:DISL:MHPA:1,2008-09-13T12:00:00Z,30.6671,-87.9365,1.8,9.3,11111222 
DISL,ioos:station:DISL:MHPA:1,2008-09-13T12:30:00Z,30.6671,-87.9365,1.9,9.1,11111222 
DISL,ioos:station:DISL:MHPA:1,2008-09-13T13:00:00Z,30.6671,-87.9365,1.9,9.1,11111222 
DISL,ioos:station:DISL:MHPA:1,2008-09-13T13:30:00Z,30.6671,-87.9365,1.9,9.3,11111222 
DISL,ioos:station:DISL:MHPA:1,2008-09-13T14:00:00Z,30.6671,-87.9365,2.0,9.3,11111222 
DISL,ioos:station:DISL:MHPA:1,2008-09-13T14:30:00Z,30.6671,-87.9365,2.0,9.4,11111222 
DISL,ioos:station:DISL:MHPA:1,2008-09-13T15:00:00Z,30.6671,-87.9365,2.0,9.3,11111222 
DISL,ioos:station:DISL:MHPA:1,2008-09-13T15:30:00Z,30.6671,-87.9365,2.0,9.3,11111222 
DISL,ioos:station:DISL:MHPA:1,2008-09-13T16:00:00Z,30.6671,-87.9365,2.0,9.3,11111222 
DISL,ioos:station:DISL:MHPA:1,2008-09-13T16:30:00Z,30.6671,-87.9365,2.0,9.4,11111222 
DISL,ioos:station:DISL:MHPA:1,2008-09-13T17:00:00Z,30.6671,-87.9365,2.0,9.4,11111222 
DISL,ioos:station:DISL:MHPA:1,2008-09-13T17:30:00Z,30.6671,-87.9365,2.0,9.3,11111222 
DISL,ioos:station:DISL:MHPA:1,2008-09-13T18:00:00Z,30.6671,-87.9365,2.0,9.4,11111222 
DISL,ioos:station:DISL:MHPA:1,2008-09-13T18:30:00Z,30.6671,-87.9365,1.9,9.2,11111222 
DISL,ioos:station:DISL:MHPA:1,2008-09-13T19:00:00Z,30.6671,-87.9365,1.9,9.4,11111222 
DISL,ioos:station:DISL:MHPA:1,2008-09-13T19:30:00Z,30.6671,-87.9365,1.8,9.4,11111222 
DISL,ioos:station:DISL:MHPA:1,2008-09-13T20:00:00Z,30.6671,-87.9365,1.8,9.4,11111222 
DISL,ioos:station:DISL:MHPA:1,2008-09-13T20:30:00Z,30.6671,-87.9365,1.8,9.4,11111222 
DISL,ioos:station:DISL:MHPA:1,2008-09-13T21:00:00Z,30.6671,-87.9365,1.7,9.4,11111222 
DISL,ioos:station:DISL:MHPA:1,2008-09-13T21:30:00Z,30.6671,-87.9365,1.7,9.4,11111222 
DISL,ioos:station:DISL:MHPA:1,2008-09-13T22:00:00Z,30.6671,-87.9365,1.6,9.3,11111222 
DISL,ioos:station:DISL:MHPA:1,2008-09-13T22:30:00Z,30.6671,-87.9365,1.6,9.3,11111222 
DISL,ioos:station:DISL:MHPA:1,2008-09-13T23:00:00Z,30.6671,-87.9365,1.5,9.4,11111222 
DISL,ioos:station:DISL:MHPA:1,2008-09-13T23:30:00Z,30.6671,-87.9365,1.5,9.2,11111222 
DISL,ioos:station:DISL:MHPA:1,2008-09-14T00:00:00Z,30.6671,-87.9365,1.5,9.3,11111222 
DISL,ioos:station:DISL:MHPA:1,2008-09-14T00:30:00Z,30.6671,-87.9365,1.5,9.4,11111222 
DISL,ioos:station:DISL:MHPA:1,2008-09-14T01:00:00Z,30.6671,-87.9365,1.4,9.3,11111222 
DISL,ioos:station:DISL:MHPA:1,2008-09-14T01:30:00Z,30.6671,-87.9365,1.4,9.1,11111222 
DISL,ioos:station:DISL:MHPA:1,2008-09-14T02:00:00Z,30.6671,-87.9365,1.4,9.1,11111222 
DISL,ioos:station:DISL:MHPA:1,2008-09-14T02:30:00Z,30.6671,-87.9365,1.4,8.9,11111222 
DISL,ioos:station:DISL:MHPA:1,2008-09-14T03:00:00Z,30.6671,-87.9365,1.4,8.8,11111222 
DISL,ioos:station:DISL:MHPA:1,2008-09-14T03:30:00Z,30.6671,-87.9365,1.4,8.7,11111222 
DISL,ioos:station:DISL:MHPA:1,2008-09-14T04:00:00Z,30.6671,-87.9365,1.4,8.5,11111222 
DISL,ioos:station:DISL:MHPA:1,2008-09-14T04:30:00Z,30.6671,-87.9365,1.5,8.5,11111222 
DISL,ioos:station:DISL:MHPA:1,2008-09-14T05:00:00Z,30.6671,-87.9365,1.5,8.1,11111222 
DISL,ioos:station:DISL:MHPA:1,2008-09-14T05:30:00Z,30.6671,-87.9365,1.5,8.2,11111222 
DISL,ioos:station:DISL:MHPA:1,2008-09-14T06:00:00Z,30.6671,-87.9365,1.5,7.7,11111222 
DISL,ioos:station:DISL:MHPA:1,2008-09-14T06:30:00Z,30.6671,-87.9365,1.6,7.3,11111222 
DISL,ioos:station:DISL:MHPA:1,2008-09-14T07:00:00Z,30.6671,-87.9365,1.6,7.6,11111222 
DISL,ioos:station:DISL:MHPA:1,2008-09-14T07:30:00Z,30.6671,-87.9365,1.6,7.5,11111222 
DISL,ioos:station:DISL:MHPA:1,2008-09-14T08:00:00Z,30.6671,-87.9365,1.6,7.0,11111222 
DISL,ioos:station:DISL:MHPA:1,2008-09-14T08:30:00Z,30.6671,-87.9365,1.6,7.1,11111222 
DISL,ioos:station:DISL:MHPA:1,2008-09-14T09:00:00Z,30.6671,-87.9365,1.6,7.1,11111222 
DISL,ioos:station:DISL:MHPA:1,2008-09-14T09:30:00Z,30.6671,-87.9365,1.6,7.3,11111222 
DISL,ioos:station:DISL:MHPA:1,2008-09-14T10:00:00Z,30.6671,-87.9365,1.7,7.3,11111222 
DISL,ioos:station:DISL:MHPA:1,2008-09-14T10:30:00Z,30.6671,-87.9365,1.7,7.5,11111222 
DISL,ioos:station:DISL:MHPA:1,2008-09-14T11:00:00Z,30.6671,-87.9365,1.7,7.2,11111222 
DISL,ioos:station:DISL:MHPA:1,2008-09-14T11:30:00Z,30.6671,-87.9365,1.7,7.2,11111222 
DISL,ioos:station:DISL:MHPA:1,2008-09-14T12:00:00Z,30.6671,-87.9365,1.6,7.2,11111222 
DISL,ioos:station:DISL:MHPA:1,2008-09-14T12:30:00Z,30.6671,-87.9365,1.6,7.2,11111222 
DISL,ioos:station:DISL:MHPA:1,2008-09-14T13:00:00Z,30.6671,-87.9365,1.6,7.5,11111222 
DISL,ioos:station:DISL:MHPA:1,2008-09-14T13:30:00Z,30.6671,-87.9365,1.6,7.4,11111222 
DISL,ioos:station:DISL:MHPA:1,2008-09-14T14:00:00Z,30.6671,-87.9365,1.7,7.5,11111222 
DISL,ioos:station:DISL:MHPA:1,2008-09-14T14:30:00Z,30.6671,-87.9365,1.7,7.6,11111222 
DISL,ioos:station:DISL:MHPA:1,2008-09-14T15:00:00Z,30.6671,-87.9365,1.7,7.6,11111222 
DISL,ioos:station:DISL:MHPA:1,2008-09-14T15:30:00Z,30.6671,-87.9365,1.7,7.5,11111222 
DISL,ioos:station:DISL:MHPA:1,2008-09-14T16:00:00Z,30.6671,-87.9365,1.7,7.5,11111222 
DISL,ioos:station:DISL:MHPA:1,2008-09-14T16:30:00Z,30.6671,-87.9365,1.7,7.4,11111222 
DISL,ioos:station:DISL:MHPA:1,2008-09-14T17:00:00Z,30.6671,-87.9365,1.7,7.3,11111222 
DISL,ioos:station:DISL:MHPA:1,2008-09-14T17:30:00Z,30.6671,-87.9365,1.7,7.2,11111222 
DISL,ioos:station:DISL:MHPA:1,2008-09-14T18:00:00Z,30.6671,-87.9365,1.7,7.1,11111222 
DISL,ioos:station:DISL:MHPA:1,2008-09-14T18:30:00Z,30.6671,-87.9365,1.7,7.0,11111222 
DISL,ioos:station:DISL:MHPA:1,2008-09-14T19:00:00Z,30.6671,-87.9365,1.7,6.7,11111222 
DISL,ioos:station:DISL:MHPA:1,2008-09-14T19:30:00Z,30.6671,-87.9365,1.6,6.7,11111222 
DISL,ioos:station:DISL:MHPA:1,2008-09-14T20:00:00Z,30.6671,-87.9365,1.6,6.9,11111222 
DISL,ioos:station:DISL:MHPA:1,2008-09-14T20:30:00Z,30.6671,-87.9365,1.6,7.0,11111222 
DISL,ioos:station:DISL:MHPA:1,2008-09-14T21:00:00Z,30.6671,-87.9365,1.6,7.0,11111222 
DISL,ioos:station:DISL:MHPA:1,2008-09-14T21:30:00Z,30.6671,-87.9365,1.5,6.7,11111222 
DISL,ioos:station:DISL:MHPA:1,2008-09-14T22:00:00Z,30.6671,-87.9365,1.5,6.9,11111222 
DISL,ioos:station:DISL:MHPA:1,2008-09-14T22:30:00Z,30.6671,-87.9365,1.5,6.8,11111222 
DISL,ioos:station:DISL:MHPA:1,2008-09-14T23:00:00Z,30.6671,-87.9365,1.4,6.7,11111222 
DISL,ioos:station:DISL:MHPA:1,2008-09-14T23:30:00Z,30.6671,-87.9365,1.4,6.7,11111222 
DISL,ioos:station:DISL:MHPA:1,2008-09-15T00:00:00Z,30.6671,-87.9365,1.4,6.8,11111222 
DISL,ioos:station:DISL:MHPA:1,2008-09-15T00:30:00Z,30.6671,-87.9365,1.4,6.4,11111222 
DISL,ioos:station:DISL:MHPA:1,2008-09-15T01:00:00Z,30.6671,-87.9365,1.3,6.5,11111222 
DISL,ioos:station:DISL:MHPA:1,2008-09-15T01:30:00Z,30.6671,-87.9365,1.3,5.6,11111222 
DISL,ioos:station:DISL:MHPA:1,2008-09-15T02:00:00Z,30.6671,-87.9365,1.3,6.2,11111222 
DISL,ioos:station:DISL:MHPA:1,2008-09-15T02:30:00Z,30.6671,-87.9365,1.3,6.1,11111222 
DISL,ioos:station:DISL:MHPA:1,2008-09-15T03:00:00Z,30.6671,-87.9365,1.3,6.3,11111222 
DISL,ioos:station:DISL:MHPA:1,2008-09-15T03:30:00Z,30.6671,-87.9365,1.4,6.1,11111222 
DISL,ioos:station:DISL:MHPA:1,2008-09-15T04:00:00Z,30.6671,-87.9365,1.4,5.9,11111222 
DISL,ioos:station:DISL:MHPA:1,2008-09-15T04:30:00Z,30.6671,-87.9365,1.4,5.9,11111222 
DISL,ioos:station:DISL:MHPA:1,2008-09-15T05:00:00Z,30.6671,-87.9365,1.4,5.6,11111222 
DISL,ioos:station:DISL:MHPA:1,2008-09-15T05:30:00Z,30.6671,-87.9365,1.4,5.8,11111222 
DISL,ioos:station:DISL:MHPA:1,2008-09-15T06:00:00Z,30.6671,-87.9365,1.4,5.5,11111222 
DISL,ioos:station:DISL:MHPA:1,2008-09-15T06:30:00Z,30.6671,-87.9365,1.4,5.5,11111222 
DISL,ioos:station:DISL:MHPA:1,2008-09-15T07:00:00Z,30.6671,-87.9365,1.4,5.5,11111222 
DISL,ioos:station:DISL:MHPA:1,2008-09-15T07:30:00Z,30.6671,-87.9365,1.4,5.5,11111222 
DISL,ioos:station:DISL:MHPA:1,2008-09-15T08:00:00Z,30.6671,-87.9365,1.4,5.8,11111222 
DISL,ioos:station:DISL:MHPA:1,2008-09-15T08:30:00Z,30.6671,-87.9365,1.4,5.7,11111222 
DISL,ioos:station:DISL:MHPA:1,2008-09-15T09:00:00Z,30.6671,-87.9365,1.4,5.7,11111222 
DISL,ioos:station:DISL:MHPA:1,2008-09-15T09:30:00Z,30.6671,-87.9365,1.4,5.7,11111222 
DISL,ioos:station:DISL:MHPA:1,2008-09-15T10:00:00Z,30.6671,-87.9365,1.3,5.7,11111222 
DISL,ioos:station:DISL:MHPA:1,2008-09-15T10:30:00Z,30.6671,-87.9365,1.3,5.7,11111222 
DISL,ioos:station:DISL:MHPA:1,2008-09-15T11:00:00Z,30.6671,-87.9365,1.3,5.4,11111222 
DISL,ioos:station:DISL:MHPA:1,2008-09-15T11:30:00Z,30.6671,-87.9365,1.2,5.9,11111222 
DISL,ioos:station:DISL:MHPA:1,2008-09-15T12:00:00Z,30.6671,-87.9365,1.2,5.6,11111222 
DISL,ioos:station:DISL:MHPA:1,2008-09-15T12:30:00Z,30.6671,-87.9365,1.2,5.4,11111222 
DISL,ioos:station:DISL:MHPA:1,2008-09-15T13:00:00Z,30.6671,-87.9365,1.2,5.3,11111222 
DISL,ioos:station:DISL:MHPA:1,2008-09-15T13:30:00Z,30.6671,-87.9365,1.2,5.7,11111222 
DISL,ioos:station:DISL:MHPA:1,2008-09-15T14:00:00Z,30.6671,-87.9365,1.2,5.9,11111222 
DISL,ioos:station:DISL:MHPA:1,2008-09-15T14:30:00Z,30.6671,-87.9365,1.2,5.8,11111222 
DISL,ioos:station:DISL:MHPA:1,2008-09-15T15:00:00Z,30.6671,-87.9365,1.2,5.5,11111222 
DISL,ioos:station:DISL:MHPA:1,2008-09-15T15:30:00Z,30.6671,-87.9365,1.2,5.6,11111222 
DISL,ioos:station:DISL:MHPA:1,2008-09-15T16:00:00Z,30.6671,-87.9365,1.3,5.8,11111222 
DISL,ioos:station:DISL:MHPA:1,2008-09-15T16:30:00Z,30.6671,-87.9365,1.3,5.8,11111222 
DISL,ioos:station:DISL:MHPA:1,2008-09-15T17:00:00Z,30.6671,-87.9365,1.3,5.5,11111222 
DISL,ioos:station:DISL:MHPA:1,2008-09-15T17:30:00Z,30.6671,-87.9365,1.4,5.8,11111222 
DISL,ioos:station:DISL:MHPA:1,2008-09-15T18:00:00Z,30.6671,-87.9365,1.4,5.9,11111222 
DISL,ioos:station:DISL:MHPA:1,2008-09-15T18:30:00Z,30.6671,-87.9365,1.4,5.9,11111222 
DISL,ioos:station:DISL:MHPA:1,2008-09-15T19:00:00Z,30.6671,-87.9365,1.4,5.7,11111222 
DISL,ioos:station:DISL:MHPA:1,2008-09-15T19:30:00Z,30.6671,-87.9365,1.4,5.6,11111222 
DISL,ioos:station:DISL:MHPA:1,2008-09-15T20:00:00Z,30.6671,-87.9365,1.4,5.5,11111222 
DISL,ioos:station:DISL:MHPA:1,2008-09-15T20:30:00Z,30.6671,-87.9365,1.4,5.3,11111222 
DISL,ioos:station:DISL:MHPA:1,2008-09-15T21:00:00Z,30.6671,-87.9365,1.3,5.5,11111222 
DISL,ioos:station:DISL:MHPA:1,2008-09-15T21:30:00Z,30.6671,-87.9365,1.3,5.5,11111222 
DISL,ioos:station:DISL:MHPA:1,2008-09-15T22:00:00Z,30.6671,-87.9365,1.2,5.4,11111222 
DISL,ioos:station:DISL:MHPA:1,2008-09-15T22:30:00Z,30.6671,-87.9365,1.2,5.5,11111222 
DISL,ioos:station:DISL:MHPA:1,2008-09-15T23:00:00Z,30.6671,-87.9365,1.2,5.5,11111222 
DISL,ioos:station:DISL:MHPA:1,2008-09-15T23:30:00Z,30.6671,-87.9365,1.1,4.8,11111222 
DISL,ioos:station:DISL:MHPA:1,2008-09-16T00:00:00Z,30.6671,-87.9365,1.1,5.1,11111222 
DISL,ioos:station:DISL:MHPA:1,2008-09-16T00:30:00Z,30.6671,-87.9365,1.0,5.1,11111222 
DISL,ioos:station:DISL:MHPA:1,2008-09-16T01:00:00Z,30.6671,-87.9365,1.0,5.2,11111222 
DISL,ioos:station:DISL:MHPA:1,2008-09-16T01:30:00Z,30.6671,-87.9365,1.0,5.1,11111222 
DISL,ioos:station:DISL:MHPA:1,2008-09-16T02:00:00Z,30.6671,-87.9365,1.0,4.9,11111222 
DISL,ioos:station:DISL:MHPA:1,2008-09-16T02:30:00Z,30.6671,-87.9365,1.0,5.2,11111222 
DISL,ioos:station:DISL:MHPA:1,2008-09-16T03:00:00Z,30.6671,-87.9365,1.0,5.4,11111222 
DISL,ioos:station:DISL:MHPA:1,2008-09-16T03:30:00Z,30.6671,-87.9365,1.0,5.3,11111222 
DISL,ioos:station:DISL:MHPA:1,2008-09-16T04:00:00Z,30.6671,-87.9365,1.1,5.3,11111222 
DISL,ioos:station:DISL:MHPA:1,2008-09-16T04:30:00Z,30.6671,-87.9365,1.1,5.4,11111222 
DISL,ioos:station:DISL:MHPA:1,2008-09-16T05:00:00Z,30.6671,-87.9365,1.1,5.1,11111222 
DISL,ioos:station:DISL:MHPA:1,2008-09-16T05:30:00Z,30.6671,-87.9365,1.1,5.1,11111222 
DISL,ioos:station:DISL:MHPA:1,2008-09-16T06:00:00Z,30.6671,-87.9365,1.2,4.8,11111222 
DISL,ioos:station:DISL:MHPA:1,2008-09-16T06:30:00Z,30.6671,-87.9365,1.2,5.1,11111222 
DISL,ioos:station:DISL:MHPA:1,2008-09-16T07:00:00Z,30.6671,-87.9365,1.2,5.1,11111222 
DISL,ioos:station:DISL:MHPA:1,2008-09-16T07:30:00Z,30.6671,-87.9365,1.2,5.1,11111222 
DISL,ioos:station:DISL:MHPA:1,2008-09-16T08:00:00Z,30.6671,-87.9365,1.2,5.2,11111222 
DISL,ioos:station:DISL:MHPA:1,2008-09-16T08:30:00Z,30.6671,-87.9365,1.2,4.7,11111222 
DISL,ioos:station:DISL:MHPA:1,2008-09-16T09:00:00Z,30.6671,-87.9365,1.2,4.8,11111222 
DISL,ioos:station:DISL:MHPA:1,2008-09-16T09:30:00Z,30.6671,-87.9365,1.1,5.2,11111222 
DISL,ioos:station:DISL:MHPA:1,2008-09-16T10:00:00Z,30.6671,-87.9365,1.1,4.7,11111222 
DISL,ioos:station:DISL:MHPA:1,2008-09-16T10:30:00Z,30.6671,-87.9365,1.1,4.8,11111222 
DISL,ioos:station:DISL:MHPA:1,2008-09-16T11:00:00Z,30.6671,-87.9365,1.1,4.6,11111222 
DISL,ioos:station:DISL:MHPA:1,2008-09-16T11:30:00Z,30.6671,-87.9365,1.0,5.0,11111222 
DISL,ioos:station:DISL:MHPA:1,2008-09-16T12:00:00Z,30.6671,-87.9365,1.0,5.2,11111222 
DISL,ioos:station:DISL:MHPA:1,2008-09-16T12:30:00Z,30.6671,-87.9365,1.0,4.9,11111222 
DISL,ioos:station:DISL:MHPA:1,2008-09-16T13:00:00Z,30.6671,-87.9365,1.0,5.1,11111222 
DISL,ioos:station:DISL:MHPA:1,2008-09-16T13:30:00Z,30.6671,-87.9365,0.9,5.2,11111222 
DISL,ioos:station:DISL:MHPA:1,2008-09-16T14:00:00Z,30.6671,-87.9365,0.9,4.8,11111222 
DISL,ioos:station:DISL:MHPA:1,2008-09-16T14:30:00Z,30.6671,-87.9365,0.9,4.6,11111222 
DISL,ioos:station:DISL:MHPA:1,2008-09-16T15:00:00Z,30.6671,-87.9365,1.0,4.8,11111222 
DISL,ioos:station:DISL:MHPA:1,2008-09-16T15:30:00Z,30.6671,-87.9365,1.0,4.6,11111222 
DISL,ioos:station:DISL:MHPA:1,2008-09-16T16:00:00Z,30.6671,-87.9365,1.0,5.0,11111222 
DISL,ioos:station:DISL:MHPA:1,2008-09-16T16:30:00Z,30.6671,-87.9365,1.1,4.9,11111222 
DISL,ioos:station:DISL:MHPA:1,2008-09-16T17:00:00Z,30.6671,-87.9365,1.1,4.3,11111222 
DISL,ioos:station:DISL:MHPA:1,2008-09-16T17:30:00Z,30.6671,-87.9365,1.2,5.1,11111222 
DISL,ioos:station:DISL:MHPA:1,2008-09-16T18:30:00Z,30.6671,-87.9365,1.2,4.7,11111222 
DISL,ioos:station:DISL:MHPA:1,2008-09-16T19:00:00Z,30.6671,-87.9365,1.2,5.0,11111222 
DISL,ioos:station:DISL:MHPA:1,2008-09-16T19:30:00Z,30.6671,-87.9365,1.3,4.6,11111222 
DISL,ioos:station:DISL:MHPA:1,2008-09-16T20:00:00Z,30.6671,-87.9365,1.3,3.7,11111222 
DISL,ioos:station:DISL:MHPA:1,2008-09-16T20:30:00Z,30.6671,-87.9365,1.3,3.8,11111222 
DISL,ioos:station:DISL:MHPA:1,2008-09-16T21:00:00Z,30.6671,-87.9365,1.3,3.9,11111222 
DISL,ioos:station:DISL:MHPA:1,2008-09-16T21:30:00Z,30.6671,-87.9365,1.3,4.7,11111222 
DISL,ioos:station:DISL:MHPA:1,2008-09-16T22:00:00Z,30.6671,-87.9365,1.2,4.4,11111222 
DISL,ioos:station:DISL:MHPA:1,2008-09-16T22:30:00Z,30.6671,-87.9365,1.2,4.2,11111222 
DISL,ioos:station:DISL:MHPA:1,2008-09-16T23:00:00Z,30.6671,-87.9365,1.2,4.7,11111222 
DISL,ioos:station:DISL:MHPA:1,2008-09-16T23:30:00Z,30.6671,-87.9365,1.2,4.2,11111222 
DISL,ioos:station:DISL:MHPA:1,2008-09-17T00:00:00Z,30.6671,-87.9365,1.2,4.2,11111222 
DISL,ioos:station:DISL:MHPA:1,2008-09-17T00:30:00Z,30.6671,-87.9365,1.1,4.3,11111222 
DISL,ioos:station:DISL:MHPA:1,2008-09-17T01:00:00Z,30.6671,-87.9365,1.1,4.4,11111222 
DISL,ioos:station:DISL:MHPA:1,2008-09-17T01:30:00Z,30.6671,-87.9365,1.1,3.8,11111222 
DISL,ioos:station:DISL:MHPA:1,2008-09-17T02:00:00Z,30.6671,-87.9365,1.1,4.7,11111222 
DISL,ioos:station:DISL:MHPA:1,2008-09-17T02:30:00Z,30.6671,-87.9365,1.1,4.3,11111222 
DISL,ioos:station:DISL:MHPA:1,2008-09-17T03:00:00Z,30.6671,-87.9365,1.1,4.3,11111222 
DISL,ioos:station:DISL:MHPA:1,2008-09-17T03:30:00Z,30.6671,-87.9365,1.1,4.5,11111222 
DISL,ioos:station:DISL:MHPA:1,2008-09-17T04:00:00Z,30.6671,-87.9365,1.1,4.6,11111222 
DISL,ioos:station:DISL:MHPA:1,2008-09-17T04:30:00Z,30.6671,-87.9365,1.2,4.4,11111222 
DISL,ioos:station:DISL:MHPA:1,2008-09-17T05:00:00Z,30.6671,-87.9365,1.2,4.3,11111222 
DISL,ioos:station:DISL:MHPA:1,2008-09-17T05:30:00Z,30.6671,-87.9365,1.2,4.0,11111222 
DISL,ioos:station:DISL:MHPA:1,2008-09-17T06:00:00Z,30.6671,-87.9365,1.2,4.1,11111222 
DISL,ioos:station:DISL:MHPA:1,2008-09-17T06:30:00Z,30.6671,-87.9365,1.3,4.2,11111222 
DISL,ioos:station:DISL:MHPA:1,2008-09-17T07:00:00Z,30.6671,-87.9365,1.3,4.3,11111222 
DISL,ioos:station:DISL:MHPA:1,2008-09-17T07:30:00Z,30.6671,-87.9365,1.3,4.3,11111222 
DISL,ioos:station:DISL:MHPA:1,2008-09-17T08:00:00Z,30.6671,-87.9365,1.2,4.0,11111222 
DISL,ioos:station:DISL:MHPA:1,2008-09-17T08:30:00Z,30.6671,-87.9365,1.2,3.8,11111222 
DISL,ioos:station:DISL:MHPA:1,2008-09-17T09:00:00Z,30.6671,-87.9365,1.2,4.3,11111222 
DISL,ioos:station:DISL:MHPA:1,2008-09-17T09:30:00Z,30.6671,-87.9365,1.2,3.9,11111222 
DISL,ioos:station:DISL:MHPA:1,2008-09-17T10:00:00Z,30.6671,-87.9365,1.2,4.2,11111222 
DISL,ioos:station:DISL:MHPA:1,2008-09-17T10:30:00Z,30.6671,-87.9365,1.1,4.1,11111222 
DISL,ioos:station:DISL:MHPA:1,2008-09-17T11:00:00Z,30.6671,-87.9365,1.1,4.2,11111222 
DISL,ioos:station:DISL:MHPA:1,2008-09-17T11:30:00Z,30.6671,-87.9365,1.1,4.6,11111222 
DISL,ioos:station:DISL:MHPA:1,2008-09-17T12:00:00Z,30.6671,-87.9365,1.0,4.4,11111222 
DISL,ioos:station:DISL:MHPA:1,2008-09-17T12:30:00Z,30.6671,-87.9365,1.0,4.4,11111222 
DISL,ioos:station:DISL:MHPA:1,2008-09-17T13:00:00Z,30.6671,-87.9365,1.0,4.3,11111222 
DISL,ioos:station:DISL:MHPA:1,2008-09-17T13:30:00Z,30.6671,-87.9365,0.9,4.6,11111222 
DISL,ioos:station:DISL:MHPA:1,2008-09-17T14:00:00Z,30.6671,-87.9365,0.9,4.3,11111222 
DISL,ioos:station:DISL:MHPA:1,2008-09-17T14:30:00Z,30.6671,-87.9365,0.9,4.4,11111222 
DISL,ioos:station:DISL:MHPA:1,2008-09-17T15:00:00Z,30.6671,-87.9365,0.9,4.0,11111222 
DISL,ioos:station:DISL:MHPA:1,2008-09-17T15:30:00Z,30.6671,-87.9365,0.9,3.9,11111222 
DISL,ioos:station:DISL:MHPA:1,2008-09-17T16:00:00Z,30.6671,-87.9365,1.0,4.2,11111222 
DISL,ioos:station:DISL:MHPA:1,2008-09-17T16:30:00Z,30.6671,-87.9365,1.0,4.4,11111222 
DISL,ioos:station:DISL:MHPA:1,2008-09-17T17:00:00Z,30.6671,-87.9365,1.0,4.0,11111222 
DISL,ioos:station:DISL:MHPA:1,2008-09-17T17:30:00Z,30.6671,-87.9365,1.0,3.7,11111222 
DISL,ioos:station:DISL:MHPA:1,2008-09-17T18:00:00Z,30.6671,-87.9365,1.1,4.0,11111222 
DISL,ioos:station:DISL:MHPA:1,2008-09-17T18:30:00Z,30.6671,-87.9365,1.1,3.7,11111222 
DISL,ioos:station:DISL:MHPA:1,2008-09-17T19:00:00Z,30.6671,-87.9365,1.1,3.3,11111222 
DISL,ioos:station:DISL:MHPA:1,2008-09-17T19:30:00Z,30.6671,-87.9365,1.2,4.5,11111222 
DISL,ioos:station:DISL:MHPA:1,2008-09-17T20:00:00Z,30.6671,-87.9365,1.2,4.3,11111222 
DISL,ioos:station:DISL:MHPA:1,2008-09-17T20:30:00Z,30.6671,-87.9365,1.2,4.0,11111222 
DISL,ioos:station:DISL:MHPA:1,2008-09-17T21:00:00Z,30.6671,-87.9365,1.2,4.2,11111222 
DISL,ioos:station:DISL:MHPA:1,2008-09-17T21:30:00Z,30.6671,-87.9365,1.3,4.1,11111222 
DISL,ioos:station:DISL:MHPA:1,2008-09-17T22:00:00Z,30.6671,-87.9365,1.3,3.4,11111222 
DISL,ioos:station:DISL:MHPA:1,2008-09-17T22:30:00Z,30.6671,-87.9365,1.3,3.9,11111222 
DISL,ioos:station:DISL:MHPA:1,2008-09-17T23:00:00Z,30.6671,-87.9365,1.3,3.8,11111222 
DISL,ioos:station:DISL:MHPA:1,2008-09-17T23:30:00Z,30.6671,-87.9365,1.3,4.0,11111222 
DISL,ioos:station:DISL:MHPA:1,2008-09-18T00:00:00Z,30.6671,-87.9365,1.3,4.0,11111222 
DISL,ioos:station:DISL:MHPA:1,2008-09-18T00:30:00Z,30.6671,-87.9365,1.3,4.1,11111222 
DISL,ioos:station:DISL:MHPA:1,2008-09-18T01:00:00Z,30.6671,-87.9365,1.3,4.1,11111222 
DISL,ioos:station:DISL:MHPA:1,2008-09-18T01:30:00Z,30.6671,-87.9365,1.3,4.0,11111222 
DISL,ioos:station:DISL:MHPA:1,2008-09-18T02:00:00Z,30.6671,-87.9365,1.3,4.2,11111222 
DISL,ioos:station:DISL:MHPA:1,2008-09-18T02:30:00Z,30.6671,-87.9365,1.3,4.2,11111222 
DISL,ioos:station:DISL:MHPA:1,2008-09-18T03:00:00Z,30.6671,-87.9365,1.3,3.8,11111222 
DISL,ioos:station:DISL:MHPA:1,2008-09-18T03:30:00Z,30.6671,-87.9365,1.3,3.3,11111222 
DISL,ioos:station:DISL:MHPA:1,2008-09-18T04:00:00Z,30.6671,-87.9365,1.3,3.8,11111222 
DISL,ioos:station:DISL:MHPA:1,2008-09-18T04:30:00Z,30.6671,-87.9365,1.3,3.9,11111222 
DISL,ioos:station:DISL:MHPA:1,2008-09-18T05:00:00Z,30.6671,-87.9365,1.3,3.3,11111222 
DISL,ioos:station:DISL:MHPA:1,2008-09-18T05:30:00Z,30.6671,-87.9365,1.3,3.6,11111222 
DISL,ioos:station:DISL:MHPA:1,2008-09-18T06:00:00Z,30.6671,-87.9365,1.3,3.9,11111222 
DISL,ioos:station:DISL:MHPA:1,2008-09-18T06:30:00Z,30.6671,-87.9365,1.3,3.9,11111222 
DISL,ioos:station:DISL:MHPA:1,2008-09-18T07:00:00Z,30.6671,-87.9365,1.3,3.8,11111222 
DISL,ioos:station:DISL:MHPA:1,2008-09-18T07:30:00Z,30.6671,-87.9365,1.3,4.0,11111222 
DISL,ioos:station:DISL:MHPA:1,2008-09-18T08:00:00Z,30.6671,-87.9365,1.2,3.5,11111222 